Location: Newark
(5.8900°S, 42.6378°W)
Time: 20:54:48
(UTC+00:00)

SR - Visible Passes

Search period start: 14 October 2019 00:00
Search period end: 24 October 2019 00:00
Orbit: 575 x 881 km, 66.7° (Epoch: 14 October)

Date Brightness Start Highest point End Pass type
(mag) Time Alt. Az. Time Alt. Az. Time Alt. Az.
21 Oct ? 22:13:49 10° S 22:14:56 16° SSE 22:14:56 16° SSE visible
22 Oct ? 23:05:43 10° SW 23:06:59 18° SW 23:06:59 18° SW visible
23 Oct ? 22:15:48 10° SSW 22:19:42 69° SSE 22:19:42 69° SSE visible
